Time,TemperatureF,DewpointF,PressureIn,WindDirection,WindDirectionDegrees,WindSpeedMPH,WindSpeedGustMPH,Humidity,HourlyPrecipIn,Conditions,Clouds,dailyrainin,SoftwareType,DateUTC
2013-01-23 00:00:00,38.6,36.2,29.97,WSW,248,1.0,4.0,91,0.00,,,0.00,WUHU216DAVISVP2,2013-01-23 08:00:00,
2013-01-23 00:03:00,38.6,36.2,29.97,SW,229,2.0,4.0,91,0.00,,,0.00,WUHU216DAVISVP2,2013-01-23 08:03:00,
2013-01-23 00:08:00,38.5,36.3,29.97,WSW,238,1.0,4.0,92,0.00,,,0.00,WUHU216DAVISVP2,2013-01-23 08:08:00,
2013-01-23 00:13:00,38.8,36.9,29.97,SE,145,1.0,5.0,93,0.00,,,0.00,WUHU216DAVISVP2,2013-01-23 08:13:00,
2013-01-23 00:18:00,39.0,37.1,29.96,SW,232,2.0,5.0,93,0.00,,,0.00,WUHU216DAVISVP2,2013-01-23 08:18:00,
2013-01-23 00:23:00,39.2,37.6,29.96,ENE,77,0.0,5.0,94,0.00,,,0.00,WUHU216DAVISVP2,2013-01-23 08:23:00,
2013-01-23 00:28:00,39.2,37.3,29.96,ENE,67,0.0,5.0,93,0.00,,,0.00,WUHU216DAVISVP2,2013-01-23 08:28:00,
2013-01-23 00:30:00,39.2,37.3,29.96,SW,225,1.0,5.0,93,0.00,,,0.00,WUHU216DAVISVP2,2013-01-23 08:30:00,
2013-01-23 00:33:00,39.2,37.3,29.98,SSE,162,0.0,4.0,93,0.00,,,0.00,WUHU216DAVISVP2,2013-01-23 08:33:00,
2013-01-23 00:38:00,39.2,37.1,29.98,ESE,105,0.0,4.0,92,0.00,,,0.00,WUHU216DAVISVP2,2013-01-23 08:38:00,
2013-01-23 00:43:00,39.1,37.0,29.98,ESE,110,0.0,3.0,92,0.00,,,0.00,WUHU216DAVISVP2,2013-01-23 08:43:00,
2013-01-23 00:48:00,39.0,36.9,29.96,East,94,1.0,3.0,92,0.00,,,0.00,WUHU216DAVISVP2,2013-01-23 08:48:00,
2013-01-23 00:53:00,39.1,36.6,29.97,ENE,72,2.0,6.0,91,0.00,,,0.00,WUHU216DAVISVP2,2013-01-23 08:53:00,
2013-01-23 00:58:00,39.1,36.6,29.94,ENE,72,5.0,6.0,91,0.00,,,0.00,WUHU216DAVISVP2,2013-01-23 08:58:00,
2013-01-23 01:00:00,39.0,36.3,29.94,ENE,68,1.0,6.0,90,0.00,,,0.00,WUHU216DAVISVP2,2013-01-23 09:00:00,
2013-01-23 01:03:00,39.0,36.0,29.97,East,91,3.0,6.0,89,0.00,,,0.00,WUHU216DAVISVP2,2013-01-23 09:03:00,
2013-01-23 01:08:00,38.9,35.9,29.96,ESE,111,2.0,9.0,89,0.00,,,0.00,WUHU216DAVISVP2,2013-01-23 09:08:00,
2013-01-23 01:13:00,38.8,35.8,29.95,East,80,3.0,9.0,89,0.00,,,0.00,WUHU216DAVISVP2,2013-01-23 09:13:00,
2013-01-23 01:18:00,38.9,35.6,29.94,NE,42,0.0,8.0,88,0.00,,,0.00,WUHU216DAVISVP2,2013-01-23 09:18:00,
2013-01-23 01:23:00,38.9,35.3,29.95,ENE,63,4.0,6.0,87,0.00,,,0.00,WUHU216DAVISVP2,2013-01-23 09:23:00,
2013-01-23 01:28:00,38.8,35.5,29.96,SSW,200,2.0,5.0,88,0.00,,,0.00,WUHU216DAVISVP2,2013-01-23 09:28:00,
2013-01-23 01:30:00,38.8,35.6,29.96,ENE,68,2.0,9.0,88,0.00,,,0.00,WUHU216DAVISVP2,2013-01-23 09:30:00,
2013-01-23 01:33:00,38.8,35.5,29.94,ENE,61,0.0,5.0,88,0.00,,,0.00,WUHU216DAVISVP2,2013-01-23 09:33:00,
2013-01-23 01:38:00,38.9,35.3,29.95,SW,228,0.0,4.0,87,0.00,,,0.00,WUHU216DAVISVP2,2013-01-23 09:38:00,
2013-01-23 01:43:00,38.9,35.3,29.98,SW,218,4.0,7.0,87,0.00,,,0.00,WUHU216DAVISVP2,2013-01-23 09:43:00,
2013-01-23 01:48:00,39.0,35.4,29.98,SW,225,1.0,10.0,87,0.00,,,0.00,WUHU216DAVISVP2,2013-01-23 09:48:00,
2013-01-23 01:53:00,39.2,35.1,29.98,SE,126,1.0,10.0,85,0.00,,,0.00,WUHU216DAVISVP2,2013-01-23 09:53:00,
2013-01-23 01:58:00,39.8,34.1,29.97,East,89,8.0,9.0,80,0.00,,,0.00,WUHU216DAVISVP2,2013-01-23 09:58:00,
2013-01-23 02:00:00,40.1,32.8,29.97,SW,225,2.0,10.0,75,0.00,,,0.00,WUHU216DAVISVP2,2013-01-23 10:00:00,
2013-01-23 02:03:00,40.6,33.6,29.97,ENE,63,5.0,9.0,76,0.00,,,0.00,WUHU216DAVISVP2,2013-01-23 10:03:00,
2013-01-23 02:08:00,40.5,33.9,29.95,ENE,63,4.0,9.0,77,0.00,,,0.00,WUHU216DAVISVP2,2013-01-23 10:08:00,
2013-01-23 02:13:00,40.7,33.1,29.98,SE,146,1.0,8.0,74,0.00,,,0.00,WUHU216DAVISVP2,2013-01-23 10:13:00,
2013-01-23 02:18:00,40.9,33.0,29.95,ENE,63,7.0,10.0,73,0.00,,,0.00,WUHU216DAVISVP2,2013-01-23 10:18:00,
2013-01-23 02:23:00,40.8,33.2,29.96,ENE,61,2.0,11.0,74,0.00,,,0.00,WUHU216DAVISVP2,2013-01-23 10:23:00,
2013-01-23 02:28:00,40.7,33.1,29.98,WSW,245,2.0,11.0,74,0.00,,,0.00,WUHU216DAVISVP2,2013-01-23 10:28:00,
2013-01-23 02:30:00,40.8,33.2,29.98,ENE,68,4.0,11.0,74,0.00,,,0.00,WUHU216DAVISVP2,2013-01-23 10:30:00,
2013-01-23 02:33:00,40.7,33.4,29.97,ESE,117,0.0,10.0,75,0.00,,,0.00,WUHU216DAVISVP2,2013-01-23 10:33:00,
2013-01-23 02:38:00,40.6,33.7,29.98,SSW,201,0.0,10.0,76,0.00,,,0.00,WUHU216DAVISVP2,2013-01-23 10:38:00,
2013-01-23 02:43:00,40.5,33.9,29.98,NNE,25,0.0,7.0,77,0.00,,,0.00,WUHU216DAVISVP2,2013-01-23 10:43:00,
2013-01-23 02:48:00,40.4,33.8,29.98,SW,231,0.0,7.0,77,0.00,,,0.00,WUHU216DAVISVP2,2013-01-23 10:48:00,
2013-01-23 02:53:00,40.4,34.1,29.98,NNE,30,0.0,7.0,78,0.00,,,0.00,WUHU216DAVISVP2,2013-01-23 10:53:00,
2013-01-23 02:58:00,40.3,34.6,29.98,SW,231,0.0,3.0,80,0.00,,,0.00,WUHU216DAVISVP2,2013-01-23 10:58:00,
2013-01-23 03:00:00,40.4,34.7,29.98,WSW,248,1.0,8.0,80,0.00,,,0.00,WUHU216DAVISVP2,2013-01-23 11:00:00,
2013-01-23 03:03:00,40.4,35.0,29.98,ENE,58,0.0,3.0,81,0.00,,,0.00,WUHU216DAVISVP2,2013-01-23 11:03:00,
2013-01-23 03:08:00,40.4,35.0,29.97,NNW,335,1.0,2.0,81,0.00,,,0.00,WUHU216DAVISVP2,2013-01-23 11:08:00,
2013-01-23 03:13:00,40.4,35.3,29.98,NNE,15,0.0,4.0,82,0.00,,,0.00,WUHU216DAVISVP2,2013-01-23 11:13:00,
2013-01-23 03:18:00,40.4,35.6,29.96,NNE,24,2.0,4.0,83,0.00,,,0.00,WUHU216DAVISVP2,2013-01-23 11:18:00,
2013-01-23 03:23:00,40.4,35.6,29.98,SSE,167,1.0,4.0,83,0.00,,,0.00,WUHU216DAVISVP2,2013-01-23 11:23:00,
2013-01-23 03:28:00,40.4,35.6,29.99,SSW,208,1.0,5.0,83,0.00,,,0.00,WUHU216DAVISVP2,2013-01-23 11:28:00,
2013-01-23 03:30:00,40.4,35.6,29.99,North,0,1.0,5.0,83,0.00,,,0.00,WUHU216DAVISVP2,2013-01-23 11:30:00,
2013-01-23 03:34:00,40.4,35.9,29.99,NW,324,0.0,5.0,84,0.00,,,0.00,WUHU216DAVISVP2,2013-01-23 11:34:00,
2013-01-23 03:39:00,40.4,35.9,30.00,SW,216,1.0,9.0,84,0.00,,,0.00,WUHU216DAVISVP2,2013-01-23 11:39:00,
2013-01-23 03:44:00,40.5,36.0,29.99,WSW,253,0.0,9.0,84,0.00,,,0.00,WUHU216DAVISVP2,2013-01-23 11:44:00,
2013-01-23 03:49:00,40.5,36.3,29.99,ESE,113,0.0,8.0,85,0.00,,,0.00,WUHU216DAVISVP2,2013-01-23 11:49:00,
2013-01-23 03:54:00,40.6,36.4,29.98,ENE,67,0.0,8.0,85,0.00,,,0.00,WUHU216DAVISVP2,2013-01-23 11:54:00,
2013-01-23 03:59:00,40.6,36.4,29.99,NE,56,1.0,4.0,85,0.00,,,0.00,WUHU216DAVISVP2,2013-01-23 11:59:00,
2013-01-23 04:00:00,40.6,36.4,29.99,SW,225,1.0,9.0,85,0.00,,,0.00,WUHU216DAVISVP2,2013-01-23 12:00:00,
2013-01-23 04:04:00,40.7,36.2,29.98,SSE,153,0.0,4.0,84,0.00,,,0.00,WUHU216DAVISVP2,2013-01-23 12:04:00,
2013-01-23 04:09:00,40.8,36.0,29.98,SSE,153,1.0,4.0,83,0.00,,,0.00,WUHU216DAVISVP2,2013-01-23 12:09:00,
2013-01-23 04:14:00,40.9,36.1,29.97,North,5,0.0,4.0,83,0.00,,,0.00,WUHU216DAVISVP2,2013-01-23 12:14:00,
2013-01-23 04:19:00,40.8,36.3,29.98,East,82,3.0,5.0,84,0.00,,,0.00,WUHU216DAVISVP2,2013-01-23 12:19:00,
2013-01-23 04:24:00,40.8,36.3,29.97,North,353,2.0,5.0,84,0.00,,,0.00,WUHU216DAVISVP2,2013-01-23 12:24:00,
2013-01-23 04:29:00,40.7,36.2,29.96,ENE,72,4.0,5.0,84,0.00,,,0.00,WUHU216DAVISVP2,2013-01-23 12:29:00,
2013-01-23 04:30:00,40.6,36.1,29.96,ENE,68,1.0,5.0,84,0.00,,,0.00,WUHU216DAVISVP2,2013-01-23 12:30:00,
2013-01-23 04:34:00,40.4,36.2,29.96,ENE,76,6.0,6.0,85,0.00,,,0.00,WUHU216DAVISVP2,2013-01-23 12:34:00,
2013-01-23 04:39:00,40.2,35.8,29.96,NE,47,5.0,7.0,84,0.00,,,0.00,WUHU216DAVISVP2,2013-01-23 12:39:00,
2013-01-23 04:44:00,40.1,36.0,29.97,ENE,59,5.0,9.0,85,0.00,,,0.00,WUHU216DAVISVP2,2013-01-23 12:44:00,
2013-01-23 04:49:00,40.0,35.9,29.97,ENE,65,5.0,9.0,85,0.00,,,0.00,WUHU216DAVISVP2,2013-01-23 12:49:00,
2013-01-23 04:54:00,40.0,35.8,29.96,East,95,5.0,8.0,85,0.00,,,0.00,WUHU216DAVISVP2,2013-01-23 12:54:00,
2013-01-23 04:59:00,40.0,36.1,29.96,NE,44,3.0,7.0,86,0.00,,,0.00,WUHU216DAVISVP2,2013-01-23 12:59:00,
2013-01-23 05:00:00,40.0,36.2,29.96,ENE,68,4.0,9.0,86,0.00,,,0.00,WUHU216DAVISVP2,2013-01-23 13:00:00,
2013-01-23 05:04:00,39.9,36.0,29.96,ENE,60,8.0,10.0,86,0.00,,,0.00,WUHU216DAVISVP2,2013-01-23 13:04:00,
2013-01-23 05:09:00,39.8,36.2,29.95,East,91,4.0,10.0,87,0.00,,,0.00,WUHU216DAVISVP2,2013-01-23 13:09:00,
2013-01-23 05:14:00,39.7,36.1,29.96,NE,55,4.0,9.0,87,0.00,,,0.00,WUHU216DAVISVP2,2013-01-23 13:14:00,
2013-01-23 05:19:00,39.6,35.7,29.94,ENE,66,4.0,9.0,86,0.00,,,0.00,WUHU216DAVISVP2,2013-01-23 13:19:00,
2013-01-23 05:24:00,39.7,35.2,29.95,East,79,4.0,7.0,84,0.00,,,0.00,WUHU216DAVISVP2,2013-01-23 13:24:00,
2013-01-23 05:29:00,39.8,35.1,29.94,NE,50,6.0,7.0,83,0.00,,,0.00,WUHU216DAVISVP2,2013-01-23 13:29:00,
2013-01-23 05:30:00,39.8,35.1,29.94,ENE,68,4.0,10.0,83,0.00,,,0.00,WUHU216DAVISVP2,2013-01-23 13:30:00,
2013-01-23 05:34:00,39.8,34.8,29.94,NE,48,6.0,7.0,82,0.00,,,0.00,WUHU216DAVISVP2,2013-01-23 13:34:00,
2013-01-23 05:39:00,39.9,34.6,29.93,ENE,70,2.0,8.0,81,0.00,,,0.00,WUHU216DAVISVP2,2013-01-23 13:39:00,
2013-01-23 05:44:00,39.9,34.6,29.93,ENE,70,4.0,8.0,81,0.00,,,0.00,WUHU216DAVISVP2,2013-01-23 13:44:00,
2013-01-23 05:49:00,39.9,34.6,29.93,ENE,60,6.0,7.0,81,0.00,,,0.00,WUHU216DAVISVP2,2013-01-23 13:49:00,
2013-01-23 05:54:00,39.9,34.2,29.94,ENE,75,2.0,7.0,80,0.00,,,0.00,WUHU216DAVISVP2,2013-01-23 13:54:00,
2013-01-23 05:59:00,39.9,34.2,29.94,East,91,3.0,7.0,80,0.00,,,0.00,WUHU216DAVISVP2,2013-01-23 13:59:00,
2013-01-23 06:00:00,39.9,34.2,29.94,ENE,68,4.0,8.0,80,0.00,,,0.00,WUHU216DAVISVP2,2013-01-23 14:00:00,
2013-01-23 06:04:00,39.9,34.2,29.94,NE,56,2.0,6.0,80,0.00,,,0.00,WUHU216DAVISVP2,2013-01-23 14:04:00,
2013-01-23 06:09:00,39.9,34.2,29.93,East,80,1.0,6.0,80,0.00,,,0.00,WUHU216DAVISVP2,2013-01-23 14:09:00,
2013-01-23 06:14:00,39.8,34.4,29.94,East,85,2.0,5.0,81,0.00,,,0.00,WUHU216DAVISVP2,2013-01-23 14:14:00,
2013-01-23 06:19:00,39.8,34.4,29.93,NE,52,2.0,7.0,81,0.00,,,0.00,WUHU216DAVISVP2,2013-01-23 14:19:00,
2013-01-23 06:24:00,39.9,34.6,29.93,East,84,4.0,7.0,81,0.00,,,0.00,WUHU216DAVISVP2,2013-01-23 14:24:00,
2013-01-23 06:29:00,39.9,34.6,29.93,East,101,3.0,6.0,81,0.00,,,0.00,WUHU216DAVISVP2,2013-01-23 14:29:00,
2013-01-23 06:30:00,39.9,34.5,29.93,ENE,68,3.0,7.0,81,0.00,,,0.00,WUHU216DAVISVP2,2013-01-23 14:30:00,
2013-01-23 06:34:00,39.9,34.6,29.93,East,82,2.0,7.0,81,0.00,,,0.00,WUHU216DAVISVP2,2013-01-23 14:34:00,
2013-01-23 06:39:00,39.9,34.2,29.93,East,79,2.0,7.0,80,0.00,,,0.00,WUHU216DAVISVP2,2013-01-23 14:39:00,
2013-01-23 06:44:00,40.0,34.3,29.93,East,89,3.0,7.0,80,0.00,,,0.00,WUHU216DAVISVP2,2013-01-23 14:44:00,
2013-01-23 06:49:00,40.2,33.9,29.92,ENE,70,5.0,8.0,78,0.00,,,0.00,WUHU216DAVISVP2,2013-01-23 14:49:00,
2013-01-23 06:54:00,40.2,34.2,29.92,ENE,60,4.0,8.0,79,0.00,,,0.00,WUHU216DAVISVP2,2013-01-23 14:54:00,
2013-01-23 06:59:00,40.0,34.0,29.92,East,101,6.0,7.0,79,0.00,,,0.00,WUHU216DAVISVP2,2013-01-23 14:59:00,
2013-01-23 07:00:00,40.0,34.3,29.92,ENE,68,4.0,8.0,80,0.00,,,0.00,WUHU216DAVISVP2,2013-01-23 15:00:00,
2013-01-23 07:04:00,39.9,34.2,29.92,NE,51,5.0,7.0,80,0.00,,,0.00,WUHU216DAVISVP2,2013-01-23 15:04:00,
2013-01-23 07:09:00,39.8,34.2,29.92,ENE,74,6.0,7.0,80,0.00,,,0.00,WUHU216DAVISVP2,2013-01-23 15:09:00,
2013-01-23 07:14:00,39.9,33.9,29.92,ENE,63,4.0,8.0,79,0.00,,,0.00,WUHU216DAVISVP2,2013-01-23 15:14:00,
2013-01-23 07:19:00,39.9,33.9,29.91,ENE,61,4.0,8.0,79,0.00,,,0.00,WUHU216DAVISVP2,2013-01-23 15:19:00,
2013-01-23 07:24:00,39.9,33.6,29.92,ENE,74,4.0,8.0,78,0.00,,,0.00,WUHU216DAVISVP2,2013-01-23 15:24:00,
2013-01-23 07:29:00,40.0,33.4,29.92,ENE,68,3.0,7.0,77,0.00,,,0.00,WUHU216DAVISVP2,2013-01-23 15:29:00,
2013-01-23 07:30:00,40.0,33.4,29.92,ENE,68,4.0,8.0,77,0.00,,,0.00,WUHU216DAVISVP2,2013-01-23 15:30:00,
2013-01-23 07:34:00,40.1,33.2,29.92,NE,51,4.0,6.0,76,0.00,,,0.00,WUHU216DAVISVP2,2013-01-23 15:34:00,
2013-01-23 07:39:00,40.2,33.2,29.93,ENE,76,5.0,6.0,76,0.00,,,0.00,WUHU216DAVISVP2,2013-01-23 15:39:00,
2013-01-23 07:44:00,40.2,33.6,29.93,East,79,4.0,6.0,77,0.00,,,0.00,WUHU216DAVISVP2,2013-01-23 15:44:00,
2013-01-23 07:49:00,40.4,33.8,29.92,NE,53,3.0,6.0,77,0.00,,,0.00,WUHU216DAVISVP2,2013-01-23 15:49:00,
2013-01-23 07:54:00,40.4,33.5,29.92,East,87,3.0,6.0,76,0.00,,,0.00,WUHU216DAVISVP2,2013-01-23 15:54:00,
2013-01-23 07:59:00,40.4,33.5,29.92,East,83,4.0,6.0,76,0.00,,,0.00,WUHU216DAVISVP2,2013-01-23 15:59:00,
2013-01-23 08:00:00,40.4,33.4,29.92,ENE,68,3.0,6.0,76,0.00,,,0.00,WUHU216DAVISVP2,2013-01-23 16:00:00,
2013-01-23 08:04:00,40.6,33.4,29.92,ENE,70,3.0,6.0,75,0.00,,,0.00,WUHU216DAVISVP2,2013-01-23 16:04:00,
2013-01-23 08:09:00,40.7,33.4,29.92,ENE,66,2.0,6.0,75,0.00,,,0.00,WUHU216DAVISVP2,2013-01-23 16:09:00,
2013-01-23 08:14:00,40.7,33.4,29.92,NE,55,3.0,6.0,75,0.00,,,0.00,WUHU216DAVISVP2,2013-01-23 16:14:00,
2013-01-23 08:19:00,40.8,33.5,29.91,East,80,4.0,7.0,75,0.00,,,0.00,WUHU216DAVISVP2,2013-01-23 16:19:00,
2013-01-23 08:24:00,41.0,33.4,29.91,NE,55,4.0,7.0,74,0.00,,,0.00,WUHU216DAVISVP2,2013-01-23 16:24:00,
2013-01-23 08:29:00,41.2,33.3,29.91,East,100,4.0,6.0,73,0.00,,,0.00,WUHU216DAVISVP2,2013-01-23 16:29:00,
2013-01-23 08:30:00,41.2,33.2,29.91,ENE,68,3.0,7.0,73,0.00,,,0.00,WUHU216DAVISVP2,2013-01-23 16:30:00,
2013-01-23 08:34:00,41.1,33.5,29.91,East,101,2.0,5.0,74,0.00,,,0.00,WUHU216DAVISVP2,2013-01-23 16:34:00,
2013-01-23 08:39:00,41.0,33.7,29.91,ENE,73,2.0,5.0,75,0.00,,,0.00,WUHU216DAVISVP2,2013-01-23 16:39:00,
2013-01-23 08:44:00,40.8,33.8,29.91,ESE,104,0.0,5.0,76,0.00,,,0.00,WUHU216DAVISVP2,2013-01-23 16:44:00,
2013-01-23 08:49:00,40.8,33.9,29.91,East,98,0.0,5.0,76,0.00,,,0.00,WUHU216DAVISVP2,2013-01-23 16:49:00,
2013-01-23 08:54:00,40.9,33.6,29.91,WSW,238,0.0,4.0,75,0.00,,,0.00,WUHU216DAVISVP2,2013-01-23 16:54:00,
2013-01-23 08:59:00,41.0,33.3,29.91,NE,53,0.0,3.0,74,0.00,,,0.00,WUHU216DAVISVP2,2013-01-23 16:59:00,
2013-01-23 09:00:00,41.0,33.3,29.91,ENE,68,1.0,5.0,74,0.00,,,0.00,WUHU216DAVISVP2,2013-01-23 17:00:00,
2013-01-23 09:04:00,41.0,33.7,29.92,ENE,72,0.0,3.0,75,0.00,,,0.00,WUHU216DAVISVP2,2013-01-23 17:04:00,
2013-01-23 09:09:00,41.0,33.7,29.92,East,97,0.0,3.0,75,0.00,,,0.00,WUHU216DAVISVP2,2013-01-23 17:09:00,
2013-01-23 09:14:00,41.1,33.8,29.92,SSE,154,0.0,3.0,75,0.00,,,0.00,WUHU216DAVISVP2,2013-01-23 17:14:00,
2013-01-23 09:19:00,41.1,34.1,29.92,SE,141,0.0,3.0,76,0.00,,,0.00,WUHU216DAVISVP2,2013-01-23 17:19:00,
2013-01-23 09:24:00,41.3,34.3,29.92,SE,141,0.0,2.0,76,0.00,,,0.00,WUHU216DAVISVP2,2013-01-23 17:24:00,
2013-01-23 09:29:00,41.3,34.0,29.92,ENE,68,0.0,1.0,75,0.00,,,0.00,WUHU216DAVISVP2,2013-01-23 17:29:00,
2013-01-23 09:30:00,41.3,34.0,29.92,ENE,68,0.0,3.0,75,0.00,,,0.00,WUHU216DAVISVP2,2013-01-23 17:30:00,
2013-01-23 09:34:00,41.4,34.5,29.93,ENE,68,0.0,1.0,76,0.00,,,0.00,WUHU216DAVISVP2,2013-01-23 17:34:00,
2013-01-23 09:39:00,41.4,34.8,29.93,ENE,68,0.0,1.0,77,0.00,,,0.00,WUHU216DAVISVP2,2013-01-23 17:39:00,
2013-01-23 09:44:00,41.4,34.8,29.92,ENE,68,0.0,1.0,77,0.00,,,0.00,WUHU216DAVISVP2,2013-01-23 17:44:00,
2013-01-23 09:49:00,41.3,34.6,29.92,ENE,62,0.0,2.0,77,0.00,,,0.00,WUHU216DAVISVP2,2013-01-23 17:49:00,
2013-01-23 09:54:00,41.2,35.2,29.92,ENE,70,2.0,2.0,79,0.01,,,0.01,WUHU216DAVISVP2,2013-01-23 17:54:00,
2013-01-23 09:59:00,40.9,35.5,29.92,East,89,0.0,2.0,81,0.01,,,0.01,WUHU216DAVISVP2,2013-01-23 17:59:00,
2013-01-23 10:00:00,40.8,35.7,29.92,ENE,68,0.0,3.0,82,0.00,,,0.00,WUHU216DAVISVP2,2013-01-23 18:00:00,
2013-01-23 10:04:00,40.6,35.5,29.92,East,81,2.0,3.0,82,0.01,,,0.01,WUHU216DAVISVP2,2013-01-23 18:04:00,
2013-01-23 10:09:00,40.4,35.3,29.92,ENE,65,3.0,4.0,82,0.01,,,0.01,WUHU216DAVISVP2,2013-01-23 18:09:00,
2013-01-23 10:14:00,40.3,35.5,29.92,East,80,1.0,5.0,83,0.01,,,0.01,WUHU216DAVISVP2,2013-01-23 18:14:00,
2013-01-23 10:19:00,40.5,35.7,29.92,East,79,3.0,6.0,83,0.01,,,0.01,WUHU216DAVISVP2,2013-01-23 18:19:00,
2013-01-23 10:24:00,40.6,36.1,29.92,NE,54,0.0,6.0,84,0.02,,,0.02,WUHU216DAVISVP2,2013-01-23 18:24:00,
2013-01-23 10:29:00,40.7,36.5,29.92,ENE,70,0.0,5.0,85,0.02,,,0.02,WUHU216DAVISVP2,2013-01-23 18:29:00,
2013-01-23 10:30:00,40.7,36.8,29.92,ENE,68,2.0,6.0,86,0.01,,,0.01,WUHU216DAVISVP2,2013-01-23 18:30:00,
2013-01-23 10:34:00,40.8,36.3,29.92,East,85,2.0,5.0,84,0.02,,,0.02,WUHU216DAVISVP2,2013-01-23 18:34:00,
2013-01-23 10:39:00,41.0,36.2,29.93,WSW,248,4.0,4.0,83,0.02,,,0.02,WUHU216DAVISVP2,2013-01-23 18:39:00,
2013-01-23 10:44:00,41.1,36.3,29.92,NE,47,3.0,5.0,83,0.02,,,0.02,WUHU216DAVISVP2,2013-01-23 18:44:00,
2013-01-23 10:49:00,41.0,35.6,29.92,ESE,117,3.0,8.0,81,0.02,,,0.02,WUHU216DAVISVP2,2013-01-23 18:49:00,
2013-01-23 10:54:00,40.9,35.5,29.92,East,82,3.0,8.0,81,0.01,,,0.02,WUHU216DAVISVP2,2013-01-23 18:54:00,
2013-01-23 10:59:00,40.9,35.5,29.93,East,79,5.0,7.0,81,0.01,,,0.02,WUHU216DAVISVP2,2013-01-23 18:59:00,
2013-01-23 11:00:00,40.9,35.2,29.93,ENE,68,3.0,8.0,80,0.01,,,0.02,WUHU216DAVISVP2,2013-01-23 19:00:00,
2013-01-23 11:04:00,40.8,35.4,29.92,ENE,71,2.0,7.0,81,0.01,,,0.02,WUHU216DAVISVP2,2013-01-23 19:04:00,
2013-01-23 11:09:00,40.8,35.4,29.92,East,89,4.0,5.0,81,0.01,,,0.02,WUHU216DAVISVP2,2013-01-23 19:09:00,
2013-01-23 11:14:00,40.9,34.9,29.93,ENE,61,2.0,5.0,79,0.02,,,0.03,WUHU216DAVISVP2,2013-01-23 19:14:00,
2013-01-23 11:19:00,40.9,35.5,29.93,ENE,73,2.0,4.0,81,0.02,,,0.03,WUHU216DAVISVP2,2013-01-23 19:19:00,
2013-01-23 11:24:00,40.8,35.4,29.92,ENE,68,3.0,4.0,81,0.01,,,0.03,WUHU216DAVISVP2,2013-01-23 19:24:00,
2013-01-23 11:29:00,40.9,35.5,29.92,ENE,66,2.0,4.0,81,0.01,,,0.03,WUHU216DAVISVP2,2013-01-23 19:29:00,
2013-01-23 11:30:00,40.9,35.8,29.92,ENE,68,2.0,4.0,82,0.00,,,0.02,WUHU216DAVISVP2,2013-01-23 19:30:00,
2013-01-23 11:34:00,41.0,35.6,29.92,ENE,72,3.0,4.0,81,0.01,,,0.03,WUHU216DAVISVP2,2013-01-23 19:34:00,
2013-01-23 11:39:00,41.2,35.5,29.92,East,101,2.0,5.0,80,0.02,,,0.04,WUHU216DAVISVP2,2013-01-23 19:39:00,
2013-01-23 11:44:00,41.3,35.6,29.92,ESE,103,1.0,5.0,80,0.02,,,0.04,WUHU216DAVISVP2,2013-01-23 19:44:00,
2013-01-23 11:49:00,41.3,36.2,29.91,East,82,2.0,6.0,82,0.02,,,0.04,WUHU216DAVISVP2,2013-01-23 19:49:00,
2013-01-23 11:54:00,41.1,36.3,29.91,ENE,70,2.0,6.0,83,0.02,,,0.04,WUHU216DAVISVP2,2013-01-23 19:54:00,
2013-01-23 11:59:00,40.8,36.3,29.90,ENE,58,3.0,6.0,84,0.03,,,0.05,WUHU216DAVISVP2,2013-01-23 19:59:00,
2013-01-23 12:00:00,40.8,36.3,29.90,ENE,68,3.0,7.0,84,0.01,,,0.03,WUHU216DAVISVP2,2013-01-23 20:00:00,
2013-01-23 12:04:00,40.5,36.3,29.90,East,80,4.0,7.0,85,0.03,,,0.05,WUHU216DAVISVP2,2013-01-23 20:04:00,
2013-01-23 12:09:00,40.3,36.1,29.89,ENE,77,3.0,7.0,85,0.03,,,0.05,WUHU216DAVISVP2,2013-01-23 20:09:00,
2013-01-23 12:14:00,40.2,35.7,29.89,ENE,73,4.0,7.0,84,0.02,,,0.05,WUHU216DAVISVP2,2013-01-23 20:14:00,
2013-01-23 12:19:00,40.1,35.6,29.89,East,86,4.0,7.0,84,0.03,,,0.06,WUHU216DAVISVP2,2013-01-23 20:19:00,
2013-01-23 12:24:00,40.1,35.9,29.89,NE,48,4.0,6.0,85,0.03,,,0.06,WUHU216DAVISVP2,2013-01-23 20:24:00,
2013-01-23 12:29:00,40.0,36.1,29.89,ENE,67,1.0,6.0,86,0.03,,,0.06,WUHU216DAVISVP2,2013-01-23 20:29:00,
2013-01-23 12:30:00,40.0,36.4,29.89,ENE,68,4.0,7.0,87,0.02,,,0.05,WUHU216DAVISVP2,2013-01-23 20:30:00,
2013-01-23 12:34:00,40.0,36.1,29.89,ENE,73,3.0,6.0,86,0.03,,,0.06,WUHU216DAVISVP2,2013-01-23 20:34:00,
2013-01-23 12:39:00,40.0,36.4,29.89,ENE,67,2.0,6.0,87,0.03,,,0.07,WUHU216DAVISVP2,2013-01-23 20:39:00,
2013-01-23 12:44:00,39.9,36.3,29.89,ENE,72,2.0,5.0,87,0.03,,,0.07,WUHU216DAVISVP2,2013-01-23 20:44:00,
2013-01-23 12:49:00,39.9,36.6,29.89,ENE,75,1.0,5.0,88,0.04,,,0.08,WUHU216DAVISVP2,2013-01-23 20:49:00,
2013-01-23 12:54:00,39.9,37.2,29.89,East,98,0.0,4.0,90,0.04,,,0.08,WUHU216DAVISVP2,2013-01-23 20:54:00,
2013-01-23 12:59:00,39.9,37.2,29.89,West,259,0.0,3.0,90,0.03,,,0.08,WUHU216DAVISVP2,2013-01-23 20:59:00,
2013-01-23 13:00:00,39.9,37.2,29.89,ENE,68,1.0,6.0,90,0.01,,,0.06,WUHU216DAVISVP2,2013-01-23 21:00:00,
2013-01-23 13:04:00,39.8,37.1,29.89,ESE,120,1.0,3.0,90,0.04,,,0.09,WUHU216DAVISVP2,2013-01-23 21:04:00,
2013-01-23 13:09:00,39.8,37.1,29.88,East,91,2.0,3.0,90,0.04,,,0.09,WUHU216DAVISVP2,2013-01-23 21:09:00,
2013-01-23 13:14:00,39.8,37.1,29.88,ENE,65,1.0,3.0,90,0.04,,,0.09,WUHU216DAVISVP2,2013-01-23 21:14:00,
2013-01-23 13:19:00,39.8,37.1,29.89,SSW,211,1.0,3.0,90,0.03,,,0.09,WUHU216DAVISVP2,2013-01-23 21:19:00,
2013-01-23 13:24:00,39.8,37.1,29.88,ENE,70,2.0,3.0,90,0.03,,,0.09,WUHU216DAVISVP2,2013-01-23 21:24:00,
2013-01-23 13:29:00,39.8,37.1,29.89,SW,223,3.0,4.0,90,0.04,,,0.10,WUHU216DAVISVP2,2013-01-23 21:29:00,
2013-01-23 13:30:00,39.8,37.4,29.89,ENE,68,1.0,4.0,91,0.02,,,0.08,WUHU216DAVISVP2,2013-01-23 21:30:00,
2013-01-23 13:34:00,39.8,37.3,29.88,ENE,70,1.0,4.0,91,0.04,,,0.10,WUHU216DAVISVP2,2013-01-23 21:34:00,
2013-01-23 13:39:00,39.7,37.2,29.88,SSE,152,0.0,4.0,91,0.04,,,0.11,WUHU216DAVISVP2,2013-01-23 21:39:00,
2013-01-23 13:43:00,39.6,37.1,29.89,South,186,0.0,4.0,91,0.04,,,0.11,WUHU216DAVISVP2,2013-01-23 21:43:00,
2013-01-23 13:48:00,39.7,37.5,29.88,South,187,0.0,3.0,92,0.03,,,0.11,WUHU216DAVISVP2,2013-01-23 21:48:00,
2013-01-23 13:53:00,39.7,37.5,29.89,WSW,246,0.0,2.0,92,0.03,,,0.11,WUHU216DAVISVP2,2013-01-23 21:53:00,
2013-01-23 13:58:00,39.7,37.5,29.89,WSW,247,0.0,1.0,92,0.03,,,0.11,WUHU216DAVISVP2,2013-01-23 21:58:00,
2013-01-23 14:00:00,39.7,37.6,29.89,ENE,68,0.0,4.0,92,0.02,,,0.10,WUHU216DAVISVP2,2013-01-23 22:00:00,
2013-01-23 14:03:00,39.8,37.6,29.89,WSW,248,0.0,1.0,92,0.02,,,0.11,WUHU216DAVISVP2,2013-01-23 22:03:00,
2013-01-23 14:08:00,39.8,37.9,29.89,WSW,248,0.0,1.0,93,0.03,,,0.12,WUHU216DAVISVP2,2013-01-23 22:08:00,
2013-01-23 14:13:00,39.9,38.0,29.89,SSW,211,1.0,1.0,93,0.03,,,0.12,WUHU216DAVISVP2,2013-01-23 22:13:00,
2013-01-23 14:19:00,40.0,37.8,29.90,SSW,207,0.0,3.0,92,0.04,,,0.13,WUHU216DAVISVP2,2013-01-23 22:19:00,
2013-01-23 14:23:00,40.1,37.9,29.90,WSW,256,1.0,3.0,92,0.04,,,0.13,WUHU216DAVISVP2,2013-01-23 22:23:00,
2013-01-23 14:28:00,40.1,38.2,29.91,SW,230,1.0,3.0,93,0.04,,,0.14,WUHU216DAVISVP2,2013-01-23 22:28:00,
2013-01-23 14:30:00,40.1,38.2,29.91,WSW,248,1.0,5.0,93,0.01,,,0.11,WUHU216DAVISVP2,2013-01-23 22:30:00,
2013-01-23 14:33:00,40.1,38.2,29.91,SW,225,5.0,5.0,93,0.05,,,0.15,WUHU216DAVISVP2,2013-01-23 22:33:00,
2013-01-23 14:38:00,40.1,38.5,29.91,WNW,284,2.0,5.0,94,0.04,,,0.15,WUHU216DAVISVP2,2013-01-23 22:38:00,
2013-01-23 14:43:00,40.2,38.6,29.91,WSW,246,4.0,6.0,94,0.05,,,0.16,WUHU216DAVISVP2,2013-01-23 22:43:00,
2013-01-23 14:48:00,40.2,38.9,29.91,SW,223,4.0,6.0,95,0.05,,,0.16,WUHU216DAVISVP2,2013-01-23 22:48:00,
2013-01-23 14:53:00,40.2,38.9,29.91,WSW,245,5.0,7.0,95,0.06,,,0.17,WUHU216DAVISVP2,2013-01-23 22:53:00,
2013-01-23 14:58:00,40.2,38.9,29.92,SW,217,3.0,7.0,95,0.07,,,0.18,WUHU216DAVISVP2,2013-01-23 22:58:00,
2013-01-23 15:00:00,40.2,38.9,29.92,WSW,248,3.0,7.0,95,0.03,,,0.14,WUHU216DAVISVP2,2013-01-23 23:00:00,
2013-01-23 15:03:00,40.2,38.9,29.92,WSW,250,5.0,7.0,95,0.08,,,0.19,WUHU216DAVISVP2,2013-01-23 23:03:00,
2013-01-23 15:08:00,40.1,38.8,29.92,SSW,208,3.0,7.0,95,0.07,,,0.19,WUHU216DAVISVP2,2013-01-23 23:08:00,
2013-01-23 15:13:00,40.2,38.9,29.92,WSW,245,5.0,7.0,95,0.08,,,0.20,WUHU216DAVISVP2,2013-01-23 23:13:00,
2013-01-23 15:18:00,40.2,38.9,29.92,SW,228,4.0,8.0,95,0.08,,,0.21,WUHU216DAVISVP2,2013-01-23 23:18:00,
2013-01-23 15:23:00,40.2,39.1,29.93,SW,223,5.0,8.0,96,0.08,,,0.21,WUHU216DAVISVP2,2013-01-23 23:23:00,
2013-01-23 15:28:00,40.2,39.2,29.93,South,187,4.0,8.0,96,0.08,,,0.22,WUHU216DAVISVP2,2013-01-23 23:28:00,
2013-01-23 15:30:00,40.2,39.2,29.93,SW,225,4.0,8.0,96,0.04,,,0.18,WUHU216DAVISVP2,2013-01-23 23:30:00,
2013-01-23 15:33:00,40.3,39.2,29.93,SW,235,5.0,8.0,96,0.07,,,0.22,WUHU216DAVISVP2,2013-01-23 23:33:00,
2013-01-23 15:38:00,40.3,39.3,29.93,SE,125,1.0,9.0,96,0.08,,,0.23,WUHU216DAVISVP2,2013-01-23 23:38:00,
2013-01-23 15:43:00,40.3,39.2,29.93,SW,232,1.0,9.0,96,0.08,,,0.24,WUHU216DAVISVP2,2013-01-23 23:43:00,
2013-01-23 15:49:00,40.3,38.9,29.93,SW,230,4.0,8.0,95,0.08,,,0.24,WUHU216DAVISVP2,2013-01-23 23:49:00,
2013-01-23 15:53:00,40.3,38.9,29.93,SE,141,4.0,9.0,95,0.08,,,0.25,WUHU216DAVISVP2,2013-01-23 23:53:00,
2013-01-23 15:58:00,40.4,39.1,29.94,East,95,3.0,12.0,95,0.07,,,0.25,WUHU216DAVISVP2,2013-01-23 23:58:00,
2013-01-23 16:00:00,40.4,39.1,29.94,SW,225,4.0,12.0,95,0.04,,,0.22,WUHU216DAVISVP2,2013-01-24 00:00:00,
2013-01-23 16:04:00,40.5,38.9,29.94,ESE,113,3.0,12.0,94,0.06,,,0.25,WUHU216DAVISVP2,2013-01-24 00:04:00,
2013-01-23 16:09:00,40.7,39.1,29.94,SSW,205,4.0,11.0,94,0.07,,,0.26,WUHU216DAVISVP2,2013-01-24 00:09:00,
2013-01-23 16:14:00,40.7,39.3,29.94,SSE,149,1.0,11.0,95,0.07,,,0.27,WUHU216DAVISVP2,2013-01-24 00:14:00,
2013-01-23 16:19:00,40.8,39.4,29.94,SSE,161,1.0,9.0,95,0.07,,,0.28,WUHU216DAVISVP2,2013-01-24 00:19:00,
2013-01-23 16:24:00,40.8,39.4,29.94,SSE,152,3.0,8.0,95,0.07,,,0.28,WUHU216DAVISVP2,2013-01-24 00:24:00,
2013-01-23 16:29:00,40.8,39.4,29.94,SW,222,5.0,8.0,95,0.06,,,0.28,WUHU216DAVISVP2,2013-01-24 00:29:00,
2013-01-23 16:30:00,40.8,39.5,29.94,SSE,158,3.0,10.0,95,0.03,,,0.25,WUHU216DAVISVP2,2013-01-24 00:30:00,
2013-01-23 16:34:00,40.8,39.5,29.95,ESE,117,3.0,8.0,95,0.07,,,0.29,WUHU216DAVISVP2,2013-01-24 00:34:00,
2013-01-23 16:39:00,40.8,39.5,29.95,SW,232,8.0,9.0,95,0.06,,,0.29,WUHU216DAVISVP2,2013-01-24 00:39:00,
2013-01-23 16:44:00,40.8,39.4,29.95,WSW,254,3.0,10.0,95,0.05,,,0.29,WUHU216DAVISVP2,2013-01-24 00:44:00,
2013-01-23 16:49:00,40.8,39.4,29.95,SSW,212,4.0,10.0,95,0.06,,,0.30,WUHU216DAVISVP2,2013-01-24 00:49:00,
2013-01-23 16:54:00,40.7,39.3,29.96,South,179,9.0,17.0,95,0.05,,,0.30,WUHU216DAVISVP2,2013-01-24 00:54:00,
2013-01-23 16:59:00,40.7,39.3,29.96,SW,217,8.0,17.0,95,0.05,,,0.30,WUHU216DAVISVP2,2013-01-24 00:59:00,
2013-01-23 17:00:00,40.6,39.3,29.96,SW,225,4.0,17.0,95,0.03,,,0.28,WUHU216DAVISVP2,2013-01-24 01:00:00,
2013-01-23 17:04:00,40.6,39.2,29.96,WSW,245,6.0,17.0,95,0.06,,,0.31,WUHU216DAVISVP2,2013-01-24 01:04:00,
2013-01-23 17:09:00,40.5,39.1,29.96,SW,235,5.0,17.0,95,0.05,,,0.31,WUHU216DAVISVP2,2013-01-24 01:09:00,
2013-01-23 17:14:00,40.4,39.0,29.97,SSW,193,4.0,15.0,95,0.04,,,0.31,WUHU216DAVISVP2,2013-01-24 01:14:00,
2013-01-23 17:19:00,40.4,39.0,29.97,WSW,246,1.0,14.0,95,0.03,,,0.31,WUHU216DAVISVP2,2013-01-24 01:19:00,
2013-01-23 17:24:00,40.4,39.0,29.97,ESE,120,4.0,18.0,95,0.03,,,0.31,WUHU216DAVISVP2,2013-01-24 01:24:00,
2013-01-23 17:29:00,40.4,39.0,29.97,SW,234,5.0,18.0,95,0.03,,,0.31,WUHU216DAVISVP2,2013-01-24 01:29:00,
2013-01-23 17:30:00,40.4,39.1,29.97,SW,225,6.0,18.0,95,0.02,,,0.30,WUHU216DAVISVP2,2013-01-24 01:30:00,
2013-01-23 17:34:00,40.3,38.9,29.97,SSW,210,4.0,18.0,95,0.02,,,0.31,WUHU216DAVISVP2,2013-01-24 01:34:00,
2013-01-23 17:39:00,40.4,39.0,29.97,SSW,200,7.0,17.0,95,0.02,,,0.31,WUHU216DAVISVP2,2013-01-24 01:39:00,
2013-01-23 17:44:00,40.4,39.1,29.98,SW,225,10.0,16.0,95,0.02,,,0.31,WUHU216DAVISVP2,2013-01-24 01:44:00,
2013-01-23 17:49:00,40.5,39.2,29.98,SSW,210,7.0,16.0,95,0.01,,,0.31,WUHU216DAVISVP2,2013-01-24 01:49:00,
2013-01-23 17:54:00,40.5,39.1,29.98,SW,221,7.0,16.0,95,0.01,,,0.31,WUHU216DAVISVP2,2013-01-24 01:54:00,
2013-01-23 17:59:00,40.5,39.1,29.98,West,259,9.0,16.0,95,0.01,,,0.31,WUHU216DAVISVP2,2013-01-24 01:59:00,
2013-01-23 18:00:00,40.5,39.2,29.98,SW,225,7.0,16.0,95,0.01,,,0.31,WUHU216DAVISVP2,2013-01-24 02:00:00,
2013-01-23 18:04:00,40.6,39.2,29.98,SW,219,2.0,13.0,95,0.00,,,0.31,WUHU216DAVISVP2,2013-01-24 02:04:00,
2013-01-23 18:09:00,40.6,39.2,29.99,East,81,2.0,13.0,95,0.00,,,0.31,WUHU216DAVISVP2,2013-01-24 02:09:00,
2013-01-23 18:14:00,40.6,39.2,29.99,SW,217,1.0,13.0,95,0.00,,,0.31,WUHU216DAVISVP2,2013-01-24 02:14:00,
2013-01-23 18:19:00,40.6,39.2,29.99,WSW,239,5.0,12.0,95,0.00,,,0.31,WUHU216DAVISVP2,2013-01-24 02:19:00,
2013-01-23 18:24:00,40.7,39.3,29.99,WSW,255,5.0,12.0,95,0.00,,,0.31,WUHU216DAVISVP2,2013-01-24 02:24:00,
2013-01-23 18:29:00,40.7,39.4,30.00,West,259,5.0,13.0,95,0.00,,,0.31,WUHU216DAVISVP2,2013-01-24 02:29:00,
2013-01-23 18:30:00,40.7,39.6,30.00,WSW,248,5.0,13.0,96,0.00,,,0.31,WUHU216DAVISVP2,2013-01-24 02:30:00,
2013-01-23 18:34:00,40.7,39.6,30.00,SW,221,0.0,13.0,96,0.00,,,0.31,WUHU216DAVISVP2,2013-01-24 02:34:00,
2013-01-23 18:39:00,40.6,39.5,30.00,WNW,290,2.0,12.0,96,0.00,,,0.31,WUHU216DAVISVP2,2013-01-24 02:39:00,
2013-01-23 18:44:00,40.7,39.6,30.00,SW,227,6.0,12.0,96,0.00,,,0.31,WUHU216DAVISVP2,2013-01-24 02:44:00,
2013-01-23 18:49:00,40.7,39.6,30.00,WSW,258,6.0,9.0,96,0.00,,,0.31,WUHU216DAVISVP2,2013-01-24 02:49:00,
2013-01-23 18:54:00,40.7,39.6,30.01,SW,228,3.0,9.0,96,0.00,,,0.31,WUHU216DAVISVP2,2013-01-24 02:54:00,
2013-01-23 18:59:00,40.8,39.7,30.01,SSW,212,2.0,8.0,96,0.00,,,0.31,WUHU216DAVISVP2,2013-01-24 02:59:00,
2013-01-23 19:00:00,40.8,39.7,30.01,SW,225,3.0,9.0,96,0.00,,,0.31,WUHU216DAVISVP2,2013-01-24 03:00:00,
2013-01-23 19:04:00,40.8,39.7,30.01,SW,219,7.0,9.0,96,0.00,,,0.31,WUHU216DAVISVP2,2013-01-24 03:04:00,
2013-01-23 19:09:00,40.9,39.8,30.01,South,183,2.0,9.0,96,0.00,,,0.31,WUHU216DAVISVP2,2013-01-24 03:09:00,
2013-01-23 19:14:00,41.0,39.9,30.01,SSW,210,1.0,9.0,96,0.00,,,0.31,WUHU216DAVISVP2,2013-01-24 03:14:00,
2013-01-23 19:19:00,41.1,40.0,30.02,South,188,2.0,12.0,96,0.00,,,0.31,WUHU216DAVISVP2,2013-01-24 03:19:00,
2013-01-23 19:24:00,41.1,39.7,30.02,WSW,242,5.0,12.0,95,0.01,,,0.32,WUHU216DAVISVP2,2013-01-24 03:24:00,
2013-01-23 19:29:00,41.2,39.8,30.02,East,80,3.0,11.0,95,0.01,,,0.32,WUHU216DAVISVP2,2013-01-24 03:29:00,
2013-01-23 19:30:00,41.2,39.9,30.02,SW,225,4.0,12.0,95,0.00,,,0.31,WUHU216DAVISVP2,2013-01-24 03:30:00,
2013-01-23 19:34:00,41.2,39.8,30.03,SW,233,3.0,11.0,95,0.01,,,0.32,WUHU216DAVISVP2,2013-01-24 03:34:00,
2013-01-23 19:38:00,41.3,39.9,30.03,WSW,242,5.0,8.0,95,0.01,,,0.32,WUHU216DAVISVP2,2013-01-24 03:38:00,
2013-01-23 19:43:00,41.3,39.9,30.03,WSW,245,5.0,8.0,95,0.01,,,0.32,WUHU216DAVISVP2,2013-01-24 03:43:00,
2013-01-23 19:48:00,41.3,40.0,30.03,SSE,166,1.0,8.0,95,0.01,,,0.32,WUHU216DAVISVP2,2013-01-24 03:48:00,
2013-01-23 19:53:00,41.4,40.1,30.04,SW,236,7.0,8.0,95,0.01,,,0.32,WUHU216DAVISVP2,2013-01-24 03:53:00,
2013-01-23 19:58:00,41.4,40.0,30.04,WSW,250,1.0,8.0,95,0.01,,,0.32,WUHU216DAVISVP2,2013-01-24 03:58:00,
2013-01-23 20:00:00,41.4,40.1,30.04,SW,225,3.0,8.0,95,0.01,,,0.32,WUHU216DAVISVP2,2013-01-24 04:00:00,
2013-01-23 20:03:00,41.4,40.0,30.05,SSW,205,0.0,8.0,95,0.01,,,0.32,WUHU216DAVISVP2,2013-01-24 04:03:00,
2013-01-23 20:08:00,41.4,40.0,30.05,SSW,207,5.0,9.0,95,0.01,,,0.32,WUHU216DAVISVP2,2013-01-24 04:08:00,
2013-01-23 20:13:00,41.4,40.0,30.06,WSW,245,8.0,11.0,95,0.01,,,0.32,WUHU216DAVISVP2,2013-01-24 04:13:00,
2013-01-23 20:18:00,41.4,40.0,30.06,SW,236,4.0,12.0,95,0.01,,,0.32,WUHU216DAVISVP2,2013-01-24 04:18:00,
2013-01-23 20:23:00,41.4,40.0,30.06,West,265,7.0,12.0,95,0.00,,,0.32,WUHU216DAVISVP2,2013-01-24 04:23:00,
2013-01-23 20:28:00,41.4,40.0,30.06,WSW,249,4.0,11.0,95,0.00,,,0.32,WUHU216DAVISVP2,2013-01-24 04:28:00,
2013-01-23 20:30:00,41.4,40.1,30.06,SW,225,5.0,12.0,95,0.00,,,0.32,WUHU216DAVISVP2,2013-01-24 04:30:00,
2013-01-23 20:33:00,41.4,40.0,30.07,SW,228,2.0,11.0,95,0.00,,,0.32,WUHU216DAVISVP2,2013-01-24 04:33:00,
2013-01-23 20:38:00,41.4,40.0,30.07,West,274,4.0,11.0,95,0.00,,,0.32,WUHU216DAVISVP2,2013-01-24 04:38:00,
2013-01-23 20:43:00,41.5,40.1,30.07,WSW,249,4.0,10.0,95,0.00,,,0.32,WUHU216DAVISVP2,2013-01-24 04:43:00,
2013-01-23 20:48:00,41.5,40.1,30.07,SSW,207,1.0,10.0,95,0.00,,,0.32,WUHU216DAVISVP2,2013-01-24 04:48:00,
2013-01-23 20:53:00,41.6,40.2,30.08,SSW,211,7.0,9.0,95,0.00,,,0.32,WUHU216DAVISVP2,2013-01-24 04:53:00,
2013-01-23 20:58:00,41.6,40.2,30.08,WSW,242,4.0,10.0,95,0.00,,,0.32,WUHU216DAVISVP2,2013-01-24 04:58:00,
2013-01-23 21:00:00,41.6,40.2,30.08,SSE,148,4.0,10.0,95,0.00,,,0.32,WUHU216DAVISVP2,2013-01-24 05:00:00,
2013-01-23 21:02:00,41.6,40.2,30.08,SSW,205,4.0,10.0,95,0.00,,,0.32,WUHU216DAVISVP2,2013-01-24 05:02:00,
2013-01-23 21:03:00,41.6,40.2,30.08,South,169,2.0,10.0,95,0.00,,,0.32,WUHU216DAVISVP2,2013-01-24 05:03:00,
2013-01-23 21:08:00,41.7,40.3,30.08,SW,225,8.0,12.0,95,0.00,,,0.32,WUHU216DAVISVP2,2013-01-24 05:08:00,
2013-01-23 21:13:00,41.7,40.3,30.08,SW,215,7.0,12.0,95,0.00,,,0.32,WUHU216DAVISVP2,2013-01-24 05:13:00,
2013-01-23 21:18:00,41.7,40.3,30.09,SW,214,4.0,12.0,95,0.00,,,0.32,WUHU216DAVISVP2,2013-01-24 05:18:00,
2013-01-23 21:23:00,41.6,40.3,30.09,WSW,241,6.0,12.0,95,0.00,,,0.32,WUHU216DAVISVP2,2013-01-24 05:23:00,
2013-01-23 21:28:00,41.6,40.3,30.10,SW,236,7.0,13.0,95,0.00,,,0.32,WUHU216DAVISVP2,2013-01-24 05:28:00,
2013-01-23 21:30:00,41.6,40.3,30.10,SW,225,6.0,13.0,95,0.00,,,0.32,WUHU216DAVISVP2,2013-01-24 05:30:00,
2013-01-23 21:33:00,41.6,40.3,30.10,SSW,203,3.0,13.0,95,0.00,,,0.32,WUHU216DAVISVP2,2013-01-24 05:33:00,
2013-01-23 21:38:00,41.6,40.3,30.10,SW,232,4.0,12.0,95,0.00,,,0.32,WUHU216DAVISVP2,2013-01-24 05:38:00,
2013-01-23 21:43:00,41.7,40.3,30.10,SW,232,12.0,13.0,95,0.00,,,0.32,WUHU216DAVISVP2,2013-01-24 05:43:00,
2013-01-23 21:48:00,41.8,40.4,30.11,SSW,208,6.0,13.0,95,0.00,,,0.32,WUHU216DAVISVP2,2013-01-24 05:48:00,
2013-01-23 21:53:00,41.8,40.2,30.11,SW,231,2.0,14.0,94,0.00,,,0.32,WUHU216DAVISVP2,2013-01-24 05:53:00,
2013-01-23 21:58:00,41.8,40.2,30.12,SW,236,8.0,14.0,94,0.00,,,0.32,WUHU216DAVISVP2,2013-01-24 05:58:00,
2013-01-23 22:00:00,41.9,40.3,30.11,SW,225,6.0,16.0,94,0.00,,,0.32,WUHU216DAVISVP2,2013-01-24 06:00:00,
2013-01-23 22:03:00,41.8,40.2,30.12,WSW,242,3.0,16.0,94,0.00,,,0.32,WUHU216DAVISVP2,2013-01-24 06:03:00,
2013-01-23 22:08:00,41.8,40.2,30.12,WSW,252,1.0,16.0,94,0.00,,,0.32,WUHU216DAVISVP2,2013-01-24 06:08:00,
2013-01-23 22:13:00,41.7,40.1,30.12,SW,217,6.0,15.0,94,0.00,,,0.32,WUHU216DAVISVP2,2013-01-24 06:13:00,
2013-01-23 22:18:00,41.7,40.1,30.12,SW,226,12.0,14.0,94,0.00,,,0.32,WUHU216DAVISVP2,2013-01-24 06:18:00,
2013-01-23 22:23:00,41.7,39.8,30.13,SW,231,2.0,14.0,93,0.00,,,0.32,WUHU216DAVISVP2,2013-01-24 06:23:00,
2013-01-23 22:28:00,41.7,39.8,30.13,SW,216,5.0,14.0,93,0.00,,,0.32,WUHU216DAVISVP2,2013-01-24 06:28:00,
2013-01-23 22:30:00,41.7,39.8,30.13,SW,225,5.0,14.0,93,0.00,,,0.32,WUHU216DAVISVP2,2013-01-24 06:30:00,
2013-01-23 22:33:00,41.7,39.8,30.14,SW,232,14.0,16.0,93,0.00,,,0.32,WUHU216DAVISVP2,2013-01-24 06:33:00,
2013-01-23 22:38:00,41.7,39.8,30.14,NW,314,3.0,16.0,93,0.00,,,0.32,WUHU216DAVISVP2,2013-01-24 06:38:00,
2013-01-23 22:43:00,41.6,39.7,30.14,SW,228,8.0,16.0,93,0.00,,,0.32,WUHU216DAVISVP2,2013-01-24 06:43:00,
2013-01-23 22:48:00,41.5,39.6,30.14,SW,233,7.0,15.0,93,0.00,,,0.32,WUHU216DAVISVP2,2013-01-24 06:48:00,
2013-01-23 22:53:00,41.5,39.6,30.14,SW,214,6.0,12.0,93,0.00,,,0.32,WUHU216DAVISVP2,2013-01-24 06:53:00,
2013-01-23 22:58:00,41.4,39.5,30.14,SSW,204,2.0,12.0,93,0.00,,,0.32,WUHU216DAVISVP2,2013-01-24 06:58:00,
2013-01-23 23:00:00,41.3,39.4,30.14,SW,225,6.0,16.0,93,0.00,,,0.32,WUHU216DAVISVP2,2013-01-24 07:00:00,
2013-01-23 23:03:00,41.3,39.7,30.15,WSW,248,7.0,12.0,94,0.00,,,0.32,WUHU216DAVISVP2,2013-01-24 07:03:00,
2013-01-23 23:08:00,41.2,39.6,30.15,SW,225,3.0,11.0,94,0.00,,,0.32,WUHU216DAVISVP2,2013-01-24 07:08:00,
2013-01-23 23:13:00,41.3,39.7,30.15,SW,231,3.0,11.0,94,0.00,,,0.32,WUHU216DAVISVP2,2013-01-24 07:13:00,
2013-01-23 23:18:00,41.3,39.7,30.15,WSW,246,7.0,15.0,94,0.00,,,0.32,WUHU216DAVISVP2,2013-01-24 07:18:00,
2013-01-23 23:23:00,41.3,39.7,30.15,NW,319,3.0,15.0,94,0.00,,,0.32,WUHU216DAVISVP2,2013-01-24 07:23:00,
2013-01-23 23:28:00,41.3,39.7,30.16,South,182,6.0,15.0,94,0.00,,,0.32,WUHU216DAVISVP2,2013-01-24 07:28:00,
2013-01-23 23:30:00,41.3,39.7,30.16,WSW,248,5.0,15.0,94,0.00,,,0.32,WUHU216DAVISVP2,2013-01-24 07:30:00,
2013-01-23 23:33:00,41.4,39.5,30.16,SW,236,4.0,16.0,93,0.00,,,0.32,WUHU216DAVISVP2,2013-01-24 07:33:00,
2013-01-23 23:38:00,41.4,39.5,30.16,WSW,246,10.0,17.0,93,0.00,,,0.32,WUHU216DAVISVP2,2013-01-24 07:38:00,
2013-01-23 23:43:00,41.4,39.5,30.16,WSW,252,10.0,17.0,93,0.00,,,0.32,WUHU216DAVISVP2,2013-01-24 07:43:00,
2013-01-23 23:48:00,41.4,39.5,30.16,SW,236,7.0,17.0,93,0.00,,,0.32,WUHU216DAVISVP2,2013-01-24 07:48:00,
2013-01-23 23:53:00,41.4,39.5,30.17,WSW,248,7.0,17.0,93,0.00,,,0.32,WUHU216DAVISVP2,2013-01-24 07:53:00,
2013-01-23 23:58:00,41.4,39.5,30.17,SSW,210,12.0,15.0,93,0.00,,,0.32,WUHU216DAVISVP2,2013-01-24 07:58:00,